Date,TemperatureHighF,TemperatureAvgF,TemperatureLowF,DewpointHighF,DewpointAvgF,DewpointLowF,HumidityHigh,HumidityAvg,HumidityLow,PressureMaxIn,PressureMinIn,WindSpeedMaxMPH,WindSpeedAvgMPH,GustSpeedMaxMPH,PrecipitationSumIn
2013-1-1,49.8,42.8,38.7,46.9,40.8,28.8,99,93,66,29.72,29.56,2,0,4,0.38
2013-1-2,53.6,45.9,41.0,50.1,40.8,30.3,99,84,55,29.77,29.52,5,1,7,0.06
2013-1-3,41.2,38.7,37.0,38.9,34.2,29.7,99,85,66,29.82,29.73,2,1,3,0.01
2013-1-4,56.1,40.5,24.8,25.6,6.0,-11.9,88,31,10,29.94,29.81,7,2,14,0.00
2013-1-5,55.4,37.5,23.7,34.5,15.0,-5.4,86,50,10,29.98,29.82,6,1,9,0.01
2013-1-6,62.1,43.8,35.4,41.3,31.9,16.0,99,70,17,29.83,29.64,6,1,9,0.01
2013-1-7,56.7,37.1,25.7,29.9,19.8,-0.9,98,60,10,30.02,29.82,5,1,9,0.00
2013-1-8,58.3,37.9,24.4,36.3,26.9,19.6,99,70,23,30.06,29.95,4,1,7,0.00
2013-1-9,59.2,49.0,38.1,52.0,42.5,33.3,99,80,49,30.06,29.98,3,0,4,0.00
2013-1-10,49.8,47.7,45.9,49.6,47.5,45.6,99,99,99,30.47,30.06,0,0,1,0.00
2013-1-11,61.7,46.1,35.4,48.7,39.0,16.4,99,83,17,31.28,30.16,6,1,9,0.34
2013-1-12,49.8,48.3,47.3,49.6,48.1,47.0,99,99,99,30.17,30.11,1,0,2,0.00
2013-1-13,73.4,62.8,50.2,63.3,56.7,49.9,99,82,50,30.13,30.05,11,3,14,0.01
2013-1-14,64.2,61.3,54.9,64.0,61.1,54.6,99,99,99,30.15,30.06,6,1,14,0.64
2013-1-15,54.9,47.4,41.4,54.6,47.1,41.1,99,99,99,30.19,30.07,4,1,9,0.98
2013-1-16,49.5,45.7,41.4,49.2,45.4,41.1,99,99,99,30.07,29.97,2,0,4,0.48
2013-1-17,50.7,45.4,32.2,50.5,45.1,31.9,99,99,99,30.18,29.86,11,1,21,2.00
2013-1-18,54.0,35.1,26.2,37.9,27.3,8.4,99,79,18,30.49,30.18,5,1,8,0.27
2013-1-19,60.8,36.9,23.7,32.1,21.8,-1.5,99,67,10,30.46,30.15,5,1,8,0.00
2013-1-20,67.6,36.4,29.1,26.9,22.5,1.3,87,64,10,30.15,30.02,9,1,9,0.00
2013-1-21,63.1,36.8,27.9,29.4,11.9,-13.7,93,49,10,30.07,29.92,8,1,12,0.00
2013-1-22,42.4,32.0,25.2,-0.1,-14.3,-23.5,25,13,10,30.21,30.01,11,5,18,0.00
2013-1-23,51.1,39.2,21.9,16.5,-1.7,-22.0,57,21,10,30.30,30.08,6,2,12,0.00
2013-1-24,46.8,37.3,23.4,21.4,-3.8,-22.8,78,22,10,30.44,29.94,17,5,17,0.00
2013-1-25,25.5,23.4,16.7,22.3,15.6,-11.3,89,74,22,30.45,30.08,3,1,4,0.00
2013-1-26,47.7,33.0,19.6,31.4,21.3,-1.0,99,67,14,30.34,30.06,7,1,15,0.03
2013-1-27,45.9,33.9,22.5,28.3,18.2,7.7,99,57,21,30.52,30.34,6,1,14,0.01
2013-1-28,65.1,43.3,32.2,44.2,34.9,25.9,99,76,30,30.43,30.22,8,1,18,0.00
2013-1-29,76.6,54.1,35.4,60.7,44.7,34.8,99,77,27,30.23,30.03,8,2,15,0.00
2013-1-30,77.7,61.9,49.8,65.4,60.5,42.0,99,95,70,30.03,29.46,13,6,21,1.57
2013-1-31,49.8,38.8,27.1,43.2,16.6,-4.4,81,45,12,30.02,29.51,10,4,16,0.01